Location: Newark
(49.8846°N, 10.8879°E)
Time: 19:10:08
(UTC+00:00)

N. Korean satellite - Visible Passes

Search period start: 07 December 2019 00:00
Search period end: 17 December 2019 00:00
Orbit: 456 x 506 km, 97.2° (Epoch: 06 December)

Date Brightness Start Highest point End Pass type
(mag) Time Alt. Az. Time Alt. Az. Time Alt. Az.
07 Dec 8.4 04:44:04 10° NNE 04:47:21 33° E 04:50:34 10° SSE visible
07 Dec 7.8 06:17:48 10° NNW 06:20:35 21° WNW 06:23:18 10° WSW visible
07 Dec 8.9 16:57:00 10° SSW 17:00:14 28° W 17:03:29 10° NW visible
08 Dec 9.5 04:19:14 10° NE 04:21:44 18° E 04:24:12 10° SE visible
08 Dec 7.0 05:51:57 10° N 05:55:18 38° WNW 05:58:35 10° SW visible
08 Dec 7.5 16:31:04 10° S 16:34:42 53° W 16:38:21 10° NNW visible
09 Dec 6.4 05:26:22 10° N 05:29:57 76° WNW 05:33:26 10° SSW visible
09 Dec 6.6 16:05:33 10° SSE 16:09:15 79° ENE 16:12:58 10° N visible
09 Dec 10.4 17:42:52 10° W 17:43:08 10° W 17:43:25 10° W visible
10 Dec 7.3 05:00:59 10° NNE 05:04:29 52° E 05:07:54 10° S visible
10 Dec 9.6 17:14:47 10° SW 17:17:27 19° W 17:20:06 10° NW visible
11 Dec 8.7 04:35:52 10° NE 04:38:56 27° E 04:41:56 10° SSE visible
11 Dec 7.6 06:09:18 10° N 06:12:16 25° WNW 06:15:10 10° WSW visible
11 Dec 8.5 16:48:27 10° SSW 16:51:50 33° W 16:55:14 10° NNW visible
12 Dec 9.7 04:11:15 10° NE 04:13:16 14° E 04:15:16 10° SE visible
12 Dec 6.7 05:43:32 10° N 05:46:58 46° WNW 05:50:18 10° SW visible
12 Dec 7.1 16:22:39 10° S 16:26:20 66° W 16:30:00 10° NNW visible
13 Dec 6.5 05:18:00 10° NNE 05:21:34 86° ESE 05:25:02 10° SSW visible
13 Dec 6.6 15:57:15 10° SSE 16:00:54 63° ENE 16:04:33 10° N visible
13 Dec 10.0 17:33:07 10° WSW 17:34:41 12° W 17:36:15 10° WNW visible
14 Dec 7.8 04:52:41 10° NNE 04:56:04 41° E 04:59:22 10° S visible
14 Dec 8.0 06:26:48 10° NNW 06:29:10 17° WNW 06:31:30 10° WSW visible
14 Dec 9.3 17:06:05 10° SW 17:09:01 22° W 17:11:56 10° NW visible
15 Dec 9.1 04:27:41 10° NE 04:30:28 22° E 04:33:13 10° SE visible
15 Dec 7.3 06:00:48 10° N 06:03:55 30° WNW 06:06:58 10° SW visible
15 Dec 8.1 16:39:56 10° S 16:43:26 41° W 16:46:55 10° NNW visible
16 Dec 10.0 04:03:28 10° ENE 04:04:46 12° E 04:06:04 10° ESE visible
16 Dec 6.5 05:35:06 10° N 05:38:34 58° WNW 05:41:58 10° SSW visible
16 Dec 6.7 16:14:15 10° S 16:17:57 82° W 16:21:37 10° NNW visible
